Theta_e
317 317 317 317 317 317 318 318 318 319 319 320 320 321 321 321 321 321 322 322 322 322 322 322 322 322 323 323 323 323 322 320 320 320 320 321 321 321 321 321 321 322 322 321 323 327 331 328 325 324 326 331 333 338 341 343 344 342 346 348 346 345 340 339 339 337 341 344 345 346 347 349 349 349 349 349 349 347 348 348 347 348 347 344 344 344 344 345
316 316 316 317 317 317 317 318 318 319 319 320 320 321 321 321 321 321 322 322 322 322 322 322 322 322 322 323 323 323 323 320 319 320 321 321 321 320 320 320 320 321 322 322 322 324 328 327 324 322 326 331 335 340 341 342 343 342 346 347 349 351 341 337 336 334 338 343 344 345 347 348 348 349 348 349 348 348 350 349 348 348 348 345 344 344 345 345
315 315 316 316 316 317 317 317 318 318 319 319 320 320 321 321 321 321 322 322 322 322 322 322 323 323 322 322 322 323 323 321 319 320 320 320 320 320 319 320 320 321 321 322 322 323 325 325 322 324 328 332 335 338 339 340 342 340 340 347 354 349 338 336 335 334 339 342 344 345 346 346 347 348 347 347 347 349 350 350 349 349 350 347 344 345 346 346
313 314 314 315 315 316 316 317 317 318 319 319 320 320 320 321 321 321 322 322 322 322 322 322 322 323 322 323 322 322 323 320 319 320 322 323 322 321 321 321 320 320 321 322 322 322 323 323 323 325 328 330 331 333 335 337 341 339 340 349 350 340 338 338 334 336 340 342 345 345 346 347 347 347 346 346 350 351 349 347 346 348 349 347 345 346 347 348
311 312 312 313 314 315 315 316 317 317 318 319 319 320 320 321 321 321 321 322 322 322 322 322 322 323 323 323 322 322 322 319 320 324 325 326 325 324 324 323 321 320 321 322 322 323 322 322 323 323 325 328 330 332 332 334 338 338 339 343 340 337 340 337 335 337 339 342 345 345 346 348 347 346 345 347 351 352 347 345 345 343 344 345 346 347 348 349
310 310 311 312 313 313 314 315 316 316 317 318 319 320 320 321 321 321 322 322 322 322 322 322 322 322 322 323 322 322 321 320 322 323 322 323 324 324 324 323 322 321 320 322 322 323 323 322 323 323 325 329 331 333 333 332 335 338 337 335 336 337 339 337 336 338 340 343 345 344 346 347 345 346 346 346 348 348 343 344 345 342 342 344 346 347 348 349
309 309 310 310 311 312 313 313 315 316 317 318 319 319 320 320 321 321 322 322 322 322 322 322 322 322 322 322 322 322 320 321 322 321 320 321 322 322 322 322 323 321 320 323 322 324 323 322 322 323 328 332 331 331 332 331 331 336 335 332 334 336 337 337 337 339 341 343 343 345 345 345 346 347 347 346 346 346 345 346 345 344 344 345 346 348 347 347
308 309 309 309 310 310 311 312 313 314 315 317 319 319 320 320 321 321 322 322 322 322 322 322 322 322 322 321 321 321 321 322 321 321 322 322 322 322 322 322 322 321 320 322 323 324 323 323 322 323 329 333 331 330 330 328 329 333 332 330 331 333 335 337 338 340 342 342 343 345 345 345 346 347 346 346 348 347 346 347 345 345 346 346 347 348 347 346
308 308 309 309 309 309 310 311 311 312 313 315 318 319 320 320 320 321 321 322 322 322 322 322 322 322 322 321 320 321 322 323 321 322 324 324 323 323 322 320 322 321 320 323 323 324 324 322 323 325 329 331 329 330 328 328 330 329 328 331 333 334 335 337 338 339 340 341 343 345 345 346 345 347 347 347 348 348 348 348 346 344 346 348 347 347 346 344
308 309 309 309 309 309 310 310 310 311 311 313 315 317 318 320 321 321 321 322 322 322 322 322 322 321 321 320 320 322 323 322 322 323 324 324 324 324 320 319 321 321 320 323 324 325 323 323 324 325 328 329 329 329 327 328 330 327 329 335 337 336 336 337 338 338 340 341 344 346 347 347 345 348 352 349 348 349 348 349 347 344 345 347 347 347 345 343
308 308 308 309 309 309 310 310 310 310 311 311 312 314 315 318 320 321 321 322 322 322 322 322 322 321 321 320 320 322 323 322 324 324 323 322 324 323 320 319 321 320 321 322 324 325 323 322 326 327 329 329 328 328 327 327 328 328 335 340 339 338 337 338 340 340 342 344 343 345 347 347 346 350 353 349 348 349 348 349 348 345 345 347 348 347 346 344
308 308 308 308 308 309 309 310 310 310 311 311 312 312 313 315 318 320 321 322 322 322 322 322 321 322 322 321 320 323 324 325 326 325 323 322 324 324 321 319 320 320 320 323 324 325 324 325 328 328 328 328 327 328 327 326 331 335 340 345 342 341 342 340 342 342 343 345 344 345 348 349 349 350 350 348 348 349 348 349 349 348 347 348 349 348 348 346
308 308 308 308 308 309 309 309 310 310 310 311 311 312 312 313 315 318 320 321 321 321 322 322 323 325 324 322 323 324 326 327 327 325 323 322 324 325 321 318 319 319 320 322 324 323 323 324 325 324 324 326 326 327 327 326 334 340 340 343 346 344 344 343 343 345 344 345 345 344 348 351 350 348 348 348 349 348 348 349 349 349 349 349 350 349 349 347
308 308 308 308 309 309 309 309 309 310 310 311 311 312 312 313 314 316 317 319 320 321 323 324 326 328 325 324 326 326 327 326 324 323 322 323 324 325 323 320 320 320 320 321 322 322 321 321 322 322 322 325 324 326 329 330 335 342 340 343 348 342 342 344 342 345 347 345 345 345 349 353 351 348 348 348 348 348 348 349 349 349 349 349 350 349 349 348
308 308 308 308 309 309 310 310 310 310 310 311 311 312 312 312 313 314 316 319 321 323 324 325 327 327 325 326 327 326 326 324 324 324 323 324 325 326 325 323 322 322 322 321 321 321 321 320 321 322 322 324 324 327 333 333 335 342 341 341 344 340 341 345 341 343 347 346 343 342 350 355 351 349 349 348 348 349 348 349 349 349 349 349 349 349 349 348
307 308 308 308 309 309 310 310 310 310 310 311 311 311 312 312 313 314 318 321 322 322 322 324 326 326 326 328 327 326 325 325 327 328 326 325 326 327 327 326 325 325 324 322 322 321 320 321 322 322 322 323 325 331 335 332 332 341 344 340 339 339 342 344 341 340 342 346 344 341 351 359 354 349 349 349 349 348 349 349 349 349 349 349 349 349 349 349
307 307 307 308 308 308 309 310 310 310 311 311 311 312 312 312 313 316 319 322 323 321 320 322 324 324 326 327 326 326 326 327 327 327 327 326 327 327 327 327 326 326 325 323 322 321 321 322 322 323 324 325 326 331 329 325 328 335 341 340 337 338 341 342 342 340 339 345 347 344 352 358 353 350 349 349 349 349 349 349 349 349 349 349 349 349 349 349
307 307 307 307 308 308 308 309 310 310 311 311 311 311 312 313 316 317 321 323 323 321 321 324 325 324 325 324 325 326 325 326 326 326 327 327 327 327 327 327 326 326 324 323 322 321 322 321 322 325 325 325 327 330 326 323 329 332 334 336 333 334 339 340 341 341 341 345 347 344 350 354 351 349 350 349 350 349 349 349 349 350 349 349 349 349 349 349
307 307 307 308 308 308 308 309 309 310 311 311 311 311 312 314 316 319 323 324 320 320 323 325 325 324 324 323 323 324 324 325 325 326 327 327 328 328 328 326 325 324 322 322 321 321 321 321 322 323 324 325 327 329 328 329 334 333 333 335 333 333 337 340 341 341 341 344 348 345 348 354 352 350 350 349 350 349 349 350 349 349 349 350 349 349 349 349
306 307 307 307 308 308 309 308 308 309 310 311 311 311 313 314 318 320 320 319 318 319 320 321 321 320 321 321 321 323 323 323 324 325 326 327 328 328 328 326 323 321 320 321 322 320 321 322 323 323 323 326 329 329 328 330 335 335 333 333 333 332 335 339 340 339 341 344 346 345 348 353 351 349 350 349 349 349 348 348 349 349 349 349 349 349 349 349
306 306 307 307 308 308 309 308 309 309 309 311 310 312 314 314 317 317 314 315 317 318 318 319 319 319 320 320 320 322 322 323 324 325 325 326 327 328 327 324 320 320 319 318 320 320 321 321 322 324 324 325 329 331 330 330 335 336 334 332 331 331 334 339 340 339 341 343 344 347 351 352 349 349 349 348 349 348 348 347 347 348 348 348 349 349 349 349
305 305 306 307 308 308 308 308 309 309 309 311 309 311 314 313 313 311 310 313 315 315 318 319 319 319 320 321 320 321 321 324 324 324 325 325 327 327 326 323 320 321 320 318 321 322 321 321 321 323 323 323 327 329 329 331 332 333 334 332 330 334 335 335 340 343 340 341 346 348 349 349 348 348 347 347 348 347 347 347 346 348 347 347 348 348 348 348
304 304 305 306 307 308 308 309 309 309 310 310 309 311 313 311 310 308 309 312 315 316 318 319 320 320 321 321 320 321 321 324 324 323 324 325 327 327 324 322 320 321 320 320 322 322 320 322 322 320 321 322 326 328 329 330 330 331 334 331 330 337 334 329 335 342 341 342 347 350 354 355 350 348 348 346 347 348 347 347 346 346 347 346 347 347 347 347
304 304 304 305 306 307 308 308 309 309 309 309 309 312 312 310 310 308 310 314 317 318 319 320 320 320 321 321 321 321 322 323 323 323 323 324 326 326 324 323 321 319 319 320 321 321 322 323 321 320 323 324 325 329 331 329 330 331 332 331 334 337 334 333 337 340 343 342 344 350 354 356 352 349 350 347 345 347 346 345 346 345 346 347 347 347 347 347
303 303 304 304 305 306 307 308 309 309 308 309 311 312 311 310 309 308 312 319 321 320 322 322 322 322 322 322 322 322 323 323 323 322 322 324 325 325 324 322 322 321 320 320 320 321 322 321 320 322 325 324 324 329 331 330 330 329 330 332 335 338 338 339 340 338 339 337 343 346 341 347 356 350 348 348 346 347 346 345 345 345 345 346 346 346 346 347
303 303 303 304 304 306 307 307 308 308 307 310 311 310 310 309 309 310 317 325 326 324 325 323 322 324 323 323 323 322 324 325 324 321 322 324 325 326 324 322 323 322 320 320 321 321 322 320 321 324 324 325 325 325 328 330 328 327 332 333 331 336 339 339 339 338 336 335 342 343 336 343 354 349 346 348 347 347 346 345 345 345 346 346 346 346 346 346
303 303 303 303 304 304 306 306 307 308 307 309 310 308 309 309 309 311 319 325 326 324 327 325 323 324 323 324 324 323 324 325 325 324 324 325 326 327 327 324 322 321 319 319 320 321 322 321 322 325 325 325 324 324 327 329 327 329 336 334 330 335 339 339 337 336 339 340 341 343 340 338 343 347 347 348 348 348 348 346 345 344 344 346 347 347 346 346
303 303 303 304 304 304 305 305 306 307 307 308 308 308 309 309 310 316 321 323 325 326 327 327 324 323 323 324 325 324 324 324 325 326 325 325 326 325 326 325 323 323 321 320 320 320 322 323 322 324 324 324 327 329 330 327 328 335 337 332 329 331 335 338 336 335 338 338 337 342 341 334 340 352 349 345 348 348 347 346 345 344 344 345 347 347 347 347
303 303 304 304 304 304 304 304 306 307 307 309 309 308 309 309 312 321 323 320 323 325 324 325 323 322 324 324 325 325 324 324 325 326 326 326 327 325 325 323 322 324 321 320 322 323 322 322 321 322 323 324 329 333 331 328 329 334 331 328 331 334 335 336 336 336 335 333 334 340 339 332 340 353 348 343 347 346 346 346 343 343 344 344 346 347 348 348
303 303 304 304 304 304 304 305 306 307 307 308 308 308 309 313 318 323 323 321 322 322 322 323 323 321 324 325 325 325 323 324 325 324 324 326 326 325 324 323 321 323 322 320 322 323 322 322 322 323 322 323 327 328 326 328 329 327 328 329 332 337 343 347 346 340 333 333 335 337 337 333 335 346 346 343 347 346 345 345 344 342 342 343 345 346 347 348
303 304 303 304 304 304 305 306 307 307 307 307 307 308 311 319 326 324 323 322 320 322 323 323 323 322 323 325 325 325 324 324 325 324 324 325 325 323 322 323 321 322 322 320 320 322 321 321 323 324 323 323 324 324 323 326 327 326 332 332 327 332 339 340 340 334 330 334 339 337 337 334 331 341 347 343 344 346 345 345 345 343 342 342 343 344 346 347
303 303 304 304 304 304 305 306 306 306 307 306 306 309 315 320 321 321 325 323 319 323 325 323 323 322 322 323 324 326 326 325 325 324 325 325 324 323 323 325 324 319 320 320 320 322 321 321 323 323 323 324 324 325 323 323 325 327 333 330 324 327 327 326 330 331 330 334 337 335 336 335 334 340 344 342 341 342 342 343 343 342 341 342 342 343 345 346
303 303 304 304 304 305 305 306 307 306 307 306 305 313 322 321 319 320 322 321 320 322 323 321 323 322 321 322 323 325 326 326 326 324 325 324 324 324 322 325 325 321 323 323 319 318 319 320 321 321 323 324 324 324 322 324 326 325 329 327 323 325 322 323 331 331 329 333 331 331 336 337 338 344 346 343 340 339 339 339 341 341 340 341 342 343 344 345
303 304 304 304 305 305 306 306 306 306 307 306 306 315 322 320 323 325 320 319 321 321 321 322 323 322 321 321 321 324 325 326 327 325 324 324 323 324 323 322 322 323 327 324 318 317 317 318 322 322 321 324 325 324 325 331 329 325 331 330 325 328 325 324 329 327 326 330 327 329 339 338 335 342 347 341 335 336 337 338 339 339 339 341 341 342 343 344
303 304 304 305 305 306 308 309 309 309 306 305 309 316 316 315 320 324 323 323 323 323 322 322 323 322 322 324 324 324 323 325 327 325 324 324 323 324 324 322 322 323 325 321 320 320 316 317 326 324 321 323 324 324 326 331 326 324 330 328 323 330 331 325 329 334 331 328 327 330 341 344 338 338 346 345 341 338 335 336 338 337 339 340 341 342 343 344
303 304 304 305 305 307 311 312 314 315 308 306 311 314 312 313 317 322 326 325 321 322 323 322 323 322 322 326 327 324 321 323 326 324 324 324 323 324 323 322 322 322 322 322 323 322 316 319 329 325 322 324 324 325 326 326 325 325 325 324 326 330 331 327 326 331 328 324 329 331 332 335 334 337 348 352 349 342 337 337 336 335 338 339 341 342 342 344
303 303 304 306 308 311 312 311 316 317 310 306 310 313 313 313 317 322 325 322 318 320 322 321 323 322 320 323 326 324 321 322 324 324 325 324 322 323 323 323 322 321 322 322 324 324 320 322 330 326 322 323 322 324 326 324 327 327 322 325 328 325 332 336 327 326 326 324 329 329 326 327 328 339 355 350 343 344 344 341 337 335 338 338 341 341 342 344
302 303 305 310 312 313 314 315 317 315 309 305 310 317 318 313 312 318 319 317 317 318 319 320 322 322 321 320 323 324 320 320 323 323 325 325 324 324 323 324 323 320 321 320 323 326 321 321 328 328 324 325 323 321 323 323 324 327 325 327 328 323 327 332 326 325 325 325 329 328 327 330 329 338 350 343 340 345 345 344 341 340 339 338 340 341 341 343
302 303 307 313 314 312 314 317 316 311 306 306 307 313 318 314 312 315 315 314 316 316 318 320 320 320 321 321 321 322 320 320 322 321 321 323 325 324 323 324 323 320 320 320 323 327 323 320 324 328 324 323 324 321 319 320 321 324 325 324 326 328 328 327 326 327 326 327 332 328 324 331 335 339 345 343 345 345 342 347 345 339 338 337 338 341 341 343
302 304 310 315 313 312 312 312 311 307 306 308 307 309 314 314 313 314 314 314 315 315 318 320 320 319 321 321 321 321 321 321 322 321 321 323 324 324 323 323 324 322 319 320 323 326 325 320 320 326 325 321 323 323 320 321 323 322 323 322 323 325 327 326 326 328 329 330 333 329 325 334 345 346 347 345 347 346 344 349 346 337 336 338 338 340 341 342
303 306 312 315 314 313 312 312 312 309 310 313 311 310 312 312 313 314 313 314 314 314 316 318 319 319 319 319 319 321 322 322 322 321 322 323 322 323 324 322 323 323 320 321 322 322 324 324 320 321 321 319 325 328 325 324 325 324 322 323 323 323 324 323 322 326 329 328 333 331 324 332 347 348 345 344 347 345 342 345 345 337 334 337 338 339 340 342
303 306 309 311 310 310 311 316 319 315 315 317 313 312 314 314 315 315 313 314 314 313 314 315 317 317 316 316 318 320 320 321 322 321 322 323 322 323 325 322 322 322 321 322 321 322 330 331 322 318 321 323 326 327 324 323 325 325 324 324 325 326 324 319 320 326 327 324 330 330 321 331 356 355 346 345 344 339 336 338 339 336 335 337 338 339 340 341
304 306 306 309 311 311 312 317 322 321 320 318 315 316 317 316 317 316 314 315 314 314 315 315 316 317 317 317 318 319 320 320 322 323 322 324 323 323 323 322 321 322 322 321 321 324 329 329 321 319 324 326 325 327 326 325 324 323 324 326 324 324 325 323 328 333 328 325 328 326 322 339 373 369 352 344 338 334 334 336 336 335 336 338 337 339 340 340
304 307 309 312 314 314 314 317 322 324 323 320 318 320 319 318 319 318 318 317 316 315 315 315 315 316 316 317 317 320 321 320 321 322 321 323 325 323 324 324 323 323 321 323 325 324 324 327 323 318 319 321 322 324 323 322 324 325 327 328 324 326 327 327 332 331 325 327 329 325 325 341 367 370 354 346 344 342 337 334 336 336 336 338 338 339 340 340
307 310 312 313 315 315 315 315 316 320 322 319 318 320 320 319 320 320 320 320 318 317 317 317 317 316 316 318 318 321 322 321 321 323 325 326 327 328 328 329 328 325 321 324 327 322 323 330 326 318 318 319 319 321 323 325 328 329 330 327 325 327 325 326 330 323 322 330 330 329 333 341 353 356 347 346 352 353 343 334 335 337 337 338 339 339 340 341
309 313 314 314 314 314 313 312 311 314 318 318 320 322 320 320 321 320 320 321 320 318 317 318 318 317 317 318 318 320 322 322 322 325 328 327 329 334 332 329 330 326 324 327 329 329 334 334 326 322 321 320 321 326 335 337 328 324 326 326 326 327 324 329 329 323 329 334 331 340 346 335 338 346 342 345 350 352 351 340 334 337 337 338 339 339 340 341
310 314 314 313 315 314 313 312 311 312 314 316 320 322 319 320 322 321 321 322 321 320 319 319 318 319 320 320 319 319 322 323 323 324 326 328 335 338 330 328 331 330 333 335 329 332 337 329 324 328 325 322 324 329 334 335 325 322 326 324 325 327 324 326 325 326 338 332 325 350 359 333 332 347 345 348 350 348 350 341 334 337 338 338 339 339 340 340
312 314 312 312 314 315 314 313 311 312 313 315 318 320 318 319 320 320 320 319 318 319 320 322 320 319 320 320 319 321 323 325 326 327 329 334 341 340 333 332 332 329 333 336 329 331 332 325 325 328 324 324 326 325 328 331 327 327 328 325 325 327 324 324 324 330 339 328 322 348 359 338 336 347 343 345 348 344 343 338 335 338 338 338 339 338 340 341
310 312 311 310 312 312 312 312 312 313 314 314 319 321 320 320 320 319 317 317 318 319 320 325 327 323 323 324 322 323 326 328 327 330 337 339 337 336 336 336 333 329 329 332 333 331 326 329 334 326 321 325 324 322 327 327 326 327 327 327 327 326 325 324 325 330 333 329 328 343 351 343 339 343 341 338 335 332 332 332 334 337 337 338 338 338 339 340
307 308 308 309 310 310 311 311 312 313 312 313 320 322 318 319 320 317 315 316 320 321 322 327 330 326 325 328 326 323 327 331 330 332 339 338 334 337 341 336 333 331 330 331 334 329 324 335 342 328 321 324 323 324 326 323 324 325 323 327 327 324 325 323 324 330 331 330 334 339 342 342 339 343 341 331 327 331 333 333 334 336 337 337 338 338 340 339
304 305 307 308 309 310 312 311 311 312 312 315 320 318 314 315 317 314 314 316 317 320 324 326 326 324 325 329 331 326 325 329 329 328 330 330 329 334 338 335 331 331 334 333 334 332 330 336 340 328 320 322 323 324 324 322 323 321 319 324 324 323 325 323 325 334 332 331 337 337 335 337 339 344 341 331 331 336 335 332 332 334 337 337 337 339 339 339
303 305 306 307 309 310 311 311 310 311 313 315 315 312 311 312 313 312 316 317 315 317 320 319 319 323 326 329 331 326 321 322 324 323 324 325 326 327 328 329 327 328 333 337 336 338 335 332 334 330 323 323 324 323 324 322 319 319 322 324 322 323 327 324 327 336 335 334 336 333 330 337 342 342 340 338 341 340 336 332 332 334 336 337 338 339 338 339
Wind_Speed
15 15 15 15 15 15 15 16 16 17 16 17 17 17 18 18 19 19 19 19 18 19 19 20 21 21 22 22 22 22 21 19 19 22 28 27 20 19 20 18 16 16 17 17 18 18 16 13 11 9 9 9 7 6 6 8 9 6 3 2 2 4 5 6 8 7 5 6 10 14 16 13 10 12 12 11 14 22 15 5 15 5 1 17 18 28 34 28
16 16 16 16 16 16 16 16 17 17 17 17 17 17 18 19 19 20 20 20 19 18 19 20 21 21 22 22 23 24 23 21 21 26 27 22 18 19 18 18 19 20 20 20 20 20 18 15 13 11 11 9 6 5 5 7 9 6 3 1 3 5 5 8 11 10 8 11 13 15 18 14 11 18 19 12 12 16 10 7 12 9 12 17 21 32 32 30
16 17 17 17 17 17 17 17 17 17 18 18 18 18 18 19 19 20 21 21 20 19 19 19 21 22 22 22 22 24 25 24 24 24 19 14 16 18 19 19 20 22 23 22 20 19 17 14 12 11 11 8 5 5 4 4 7 6 3 1 5 6 5 9 18 16 15 20 16 15 19 11 12 21 19 13 13 10 8 12 13 15 19 19 27 34 31 32
16 17 17 18 18 18 18 18 18 18 18 19 19 19 19 19 19 20 21 21 22 20 20 19 20 21 22 23 22 22 24 22 18 12 5 4 8 10 13 16 20 24 24 22 20 18 15 13 13 12 9 5 4 4 3 5 6 4 5 4 6 5 4 10 23 21 19 26 22 18 17 10 14 18 18 19 13 3 10 21 23 23 25 27 33 34 32 32
17 17 18 18 19 19 19 19 19 19 19 19 20 20 20 19 19 20 21 22 22 22 22 20 20 21 22 23 22 22 20 13 4 3 1 3 5 6 7 10 17 23 24 23 21 17 14 16 15 11 7 3 3 3 3 8 8 3 5 9 10 6 3 11 25 24 23 26 22 20 15 14 17 15 21 25 11 8 18 26 27 28 31 34 36 34 33 32
18 18 18 19 19 20 20 20 20 20 20 21 20 21 21 20 20 20 21 22 22 23 23 21 21 21 21 22 23 21 12 6 5 1 9 12 10 10 9 11 15 21 25 23 20 16 15 17 14 11 7 3 4 5 4 9 9 3 5 9 15 14 7 13 26 27 28 25 20 20 17 19 17 9 23 26 7 9 21 25 26 28 33 37 37 35 34 33
19 19 19 19 20 20 21 21 21 21 21 22 22 22 21 21 21 21 21 22 23 23 23 23 23 22 22 22 22 19 11 16 17 11 16 15 13 15 14 14 15 21 27 25 22 18 16 16 15 12 8 3 5 6 5 7 9 5 5 7 14 20 15 19 28 31 34 30 23 23 20 22 17 10 21 21 3 5 17 23 25 29 34 36 36 35 35 35
20 20 20 20 20 21 21 22 22 22 23 23 23 23 22 22 22 22 21 22 23 24 24 24 24 23 23 21 20 17 17 22 18 12 13 13 13 14 14 15 15 22 28 28 24 20 17 16 16 13 6 3 5 5 3 3 4 5 6 7 8 16 18 25 30 32 32 27 25 23 19 20 17 15 19 14 4 5 18 23 26 31 34 35 36 35 35 35
21 21 20 21 21 21 21 22 22 23 23 23 24 24 24 24 23 23 22 23 23 24 25 24 25 25 23 21 16 13 19 19 11 8 10 10 11 11 12 14 16 23 29 28 23 18 16 15 16 13 6 4 5 4 2 2 3 6 6 4 3 9 18 28 28 29 28 23 25 21 12 12 13 13 11 8 7 13 21 24 29 33 34 35 35 35 36 35
22 22 21 21 21 22 22 22 23 23 24 24 24 24 24 25 25 24 23 23 24 24 25 24 25 25 23 21 11 7 16 16 11 11 10 10 9 9 9 11 16 24 29 28 23 19 16 12 13 12 5 5 6 4 1 3 5 10 3 6 8 13 19 27 25 25 24 22 28 20 7 10 16 12 4 8 15 19 24 27 31 34 34 35 34 34 35 34
22 22 22 22 22 22 22 22 23 23 24 24 24 24 25 26 25 25 24 24 24 25 25 25 26 25 23 19 10 10 17 17 16 17 16 14 11 9 7 9 16 24 28 27 23 20 15 9 11 10 4 4 4 2 1 2 10 5 10 13 9 13 15 21 22 22 20 14 23 21 8 9 13 5 5 17 22 23 28 30 32 34 34 35 34 34 34 33
22 22 23 23 23 23 23 23 24 23 24 24 23 24 24 25 25 25 25 24 24 25 25 25 25 25 21 18 20 18 18 19 21 21 18 14 11 10 6 9 15 21 25 24 20 16 13 11 11 7 3 4 2 1 2 6 5 6 15 9 6 10 9 12 14 21 18 9 22 23 9 4 9 5 8 23 26 26 30 31 32 33 33 33 33 34 33 32
22 23 23 23 23 23 24 24 24 24 24 23 23 23 24 25 24 24 24 23 24 24 25 23 23 23 16 16 24 22 19 20 21 19 15 12 11 10 6 8 12 16 20 18 14 11 11 12 10 6 3 4 1 1 3 4 7 8 6 6 6 7 3 6 7 16 13 11 28 23 3 6 9 7 14 26 29 29 28 29 32 32 32 32 32 33 33 32
22 23 23 23 23 24 24 24 25 25 24 24 23 23 23 23 23 23 23 22 22 20 19 17 15 16 12 16 24 21 18 18 16 15 13 11 10 9 7 7 8 11 13 13 10 8 9 9 8 6 4 4 3 1 4 4 7 4 3 5 3 4 5 5 5 11 8 13 26 14 1 7 8 8 20 28 31 31 29 28 30 31 32 32 33 34 34 34
22 23 23 23 24 24 24 25 26 26 25 24 23 23 23 23 22 22 20 18 17 15 15 13 11 13 13 20 23 13 11 10 8 10 9 10 11 9 9 8 7 7 8 10 10 9 8 7 6 5 4 4 3 2 3 4 4 1 4 3 1 3 5 5 5 9 8 14 19 5 0 6 5 9 22 28 30 31 29 28 30 30 32 33 33 34 34 34
22 22 23 23 23 24 24 25 26 26 25 24 24 24 23 22 21 19 17 15 13 12 12 11 12 12 10 14 13 5 6 3 1 5 4 7 10 10 9 8 7 6 8 8 10 11 9 7 6 4 3 4 4 4 4 4 3 3 3 5 4 3 5 4 5 10 7 11 14 6 3 3 2 11 23 27 29 28 26 26 29 29 31 32 33 34 34 35
22 23 23 23 23 23 23 24 25 26 25 24 25 24 22 22 19 16 15 13 13 13 14 13 13 13 12 14 11 7 5 1 2 7 4 4 8 11 10 9 7 7 9 8 9 10 11 8 5 3 2 2 3 5 4 2 1 2 2 4 3 2 6 5 4 9 7 8 11 5 3 3 2 13 24 27 29 27 23 24 27 28 29 30 32 33 33 35
23 23 24 24 23 22 22 23 25 25 24 23 24 24 23 20 16 14 14 13 12 12 12 10 6 6 10 12 10 9 8 7 11 12 5 3 6 10 11 11 8 6 8 8 7 10 10 7 4 3 1 3 3 5 4 4 5 6 4 4 3 3 6 8 7 10 11 9 8 4 3 4 3 11 20 25 28 26 23 26 27 28 30 30 31 32 33 35
24 24 25 25 24 23 22 22 24 24 24 22 22 22 20 16 13 11 11 11 11 9 8 6 4 5 11 17 18 17 17 17 18 14 7 4 5 8 11 12 9 7 8 6 5 9 10 4 3 4 3 4 5 6 6 8 9 10 7 6 7 5 7 11 6 8 14 11 8 8 6 5 7 10 16 23 28 26 24 25 26 27 28 29 29 31 33 35
24 24 25 25 24 23 22 23 23 22 23 22 21 18 13 11 8 6 11 18 18 14 14 16 17 19 24 29 30 26 24 23 20 16 10 4 3 4 8 10 6 6 7 5 4 8 10 5 3 6 7 7 8 9 9 7 8 8 7 5 7 6 7 8 3 2 10 10 9 8 4 6 10 11 15 22 24 21 21 21 23 26 27 28 29 31 33 36
25 25 25 25 25 23 21 23 22 21 21 18 18 14 7 7 4 5 17 24 20 16 21 25 24 26 29 30 29 25 22 21 21 19 14 10 7 3 5 8 5 3 4 4 3 5 8 7 6 8 10 10 9 9 8 7 7 6 6 5 5 5 6 6 2 2 6 7 5 4 5 6 8 9 13 19 19 19 24 24 24 27 27 29 30 32 34 35
26 25 25 26 25 23 21 22 22 21 17 11 13 9 5 7 5 7 12 16 24 26 26 25 24 29 31 28 28 26 17 12 20 24 16 12 10 6 6 6 5 3 3 2 3 4 5 6 8 9 8 7 6 6 8 7 6 5 4 5 4 4 4 4 4 5 6 5 4 3 4 3 3 7 11 16 19 22 29 28 26 28 28 29 32 34 35 34
26 26 26 26 26 24 21 21 22 18 11 10 12 4 3 7 7 11 9 10 22 28 23 21 22 29 30 27 26 22 16 11 15 23 18 10 10 11 9 6 5 5 3 4 5 6 4 6 8 8 7 8 4 4 8 5 4 4 4 5 3 3 3 3 4 7 6 2 2 5 2 3 1 4 7 16 21 19 23 25 25 27 30 33 37 37 37 36
25 25 26 26 27 25 21 21 20 12 9 13 10 1 2 9 10 14 11 7 11 17 18 18 18 23 25 22 18 16 20 18 16 20 20 14 12 11 10 8 6 5 5 6 6 7 5 6 7 9 7 9 6 4 7 5 2 3 5 6 4 4 5 3 4 6 4 2 2 6 4 5 4 7 7 12 17 15 17 21 22 26 31 34 34 34 36 38
24 24 26 26 27 26 23 19 13 10 13 12 3 2 5 10 13 16 9 3 6 10 11 10 9 12 12 11 11 14 17 17 21 23 20 17 15 9 7 9 7 5 6 7 6 6 7 5 8 11 7 8 7 4 6 7 4 3 5 8 8 8 6 4 8 9 4 2 3 5 1 6 4 9 9 7 10 13 15 17 22 26 29 30 30 32 35 38
24 23 25 26 27 28 24 15 10 14 15 7 1 3 8 10 14 13 4 2 4 6 3 2 3 3 3 5 10 11 7 9 19 23 19 18 17 12 6 5 4 4 7 6 3 3 5 5 7 8 7 8 7 5 6 8 6 3 6 10 10 8 8 8 10 8 4 4 5 6 5 5 4 6 10 8 9 13 13 13 19 26 29 30 32 34 37 38
24 23 24 25 26 28 26 18 15 17 13 4 5 8 9 10 11 7 3 4 4 4 1 1 2 2 4 4 13 11 1 5 11 17 22 19 17 17 10 4 3 3 5 5 2 3 5 7 6 6 7 7 6 5 6 8 8 3 6 9 10 9 9 12 11 7 5 2 1 4 4 2 5 6 8 10 9 11 12 13 16 24 30 33 35 37 39 41
24 22 24 25 24 25 27 24 20 16 11 7 8 7 7 10 7 1 3 2 4 2 0 2 2 4 4 4 18 15 3 2 5 11 23 21 17 15 9 6 7 5 5 6 5 5 4 9 9 8 6 4 5 6 8 10 6 6 6 8 9 9 9 10 10 6 3 4 1 3 3 2 6 6 2 8 10 11 15 18 17 23 31 34 37 39 41 42
24 23 23 26 24 23 25 25 19 14 12 8 5 6 8 8 4 2 4 1 4 2 1 1 3 4 1 5 15 15 6 3 2 8 20 21 19 14 6 9 10 7 7 7 6 5 3 8 11 10 6 5 6 5 9 12 6 5 6 6 5 5 5 6 7 4 3 3 5 7 6 5 6 5 1 6 9 13 16 17 18 24 31 35 37 40 42 42
25 23 23 26 25 24 25 23 15 13 13 9 7 8 7 3 3 4 2 2 3 3 2 1 3 2 2 4 5 10 7 7 4 5 14 16 20 15 7 10 10 6 4 4 5 6 4 5 7 8 6 8 8 5 9 14 9 5 7 6 6 5 4 3 1 3 4 1 6 10 12 9 6 5 4 6 10 16 16 14 15 20 28 35 39 41 43 43
26 23 23 25 26 25 26 23 15 13 13 11 10 8 2 2 3 3 4 3 3 4 1 1 1 3 3 3 2 6 5 6 4 4 6 6 11 10 4 5 5 4 3 3 2 4 5 3 3 4 8 9 7 4 6 9 6 5 5 5 4 2 3 4 4 3 3 4 7 9 10 8 7 6 6 11 15 17 16 15 15 18 27 37 40 42 44 44
28 25 23 24 25 26 25 22 17 16 14 9 9 5 2 2 0 3 4 2 2 2 0 1 2 3 3 3 1 4 3 4 4 3 5 4 5 6 5 5 5 4 4 4 3 3 4 5 4 4 6 9 8 4 3 1 1 5 4 5 4 2 2 1 1 1 3 6 6 5 8 5 7 8 8 12 14 14 15 18 21 22 29 37 39 42 43 42
29 27 26 23 23 25 22 18 17 17 13 9 6 2 3 2 4 6 4 2 2 1 1 2 4 4 3 3 3 4 2 4 5 2 3 5 4 5 6 5 7 7 3 4 5 3 3 5 5 4 5 6 9 6 3 2 3 6 6 5 5 3 2 3 3 1 2 6 5 3 8 4 5 7 10 13 16 20 23 28 32 28 27 33 38 40 41 41
29 29 28 24 21 22 19 16 17 17 13 10 4 1 3 4 5 5 6 6 4 3 2 1 6 8 3 1 3 2 1 4 4 4 3 4 4 5 4 4 6 7 4 3 4 5 4 5 6 7 4 6 9 7 7 6 5 6 5 6 6 5 5 4 3 3 4 3 2 2 5 5 4 4 8 12 16 23 27 30 29 22 18 24 31 35 36 38
31 28 27 24 19 17 15 13 13 13 13 10 5 2 5 5 3 2 5 6 2 4 4 4 5 6 4 2 3 1 2 3 1 4 4 4 5 5 5 5 6 5 5 4 3 3 5 6 7 7 6 7 7 6 8 8 4 5 3 5 5 6 6 2 3 6 5 1 1 2 3 5 5 6 7 5 7 13 20 22 21 18 15 18 26 32 36 38
32 28 25 22 16 12 11 10 10 11 12 13 6 3 6 4 3 4 3 2 1 1 4 6 2 1 3 4 3 3 3 2 3 1 2 4 4 5 5 5 7 9 7 6 3 1 4 6 6 5 5 6 9 8 8 8 5 2 3 4 5 6 7 3 2 1 3 2 2 2 3 3 2 7 8 4 6 10 11 13 17 19 17 20 27 34 37 40
33 31 25 18 14 13 12 12 12 11 16 14 5 6 5 3 5 5 2 1 1 1 2 2 1 2 2 2 2 2 4 4 3 2 2 2 3 5 6 4 6 11 10 8 4 2 4 5 6 6 7 9 11 11 6 8 9 5 4 7 3 3 3 3 2 1 2 2 4 2 5 4 2 3 7 4 8 12 9 9 12 12 16 23 29 34 38 42
35 32 22 15 16 17 14 13 11 15 18 10 5 5 3 4 5 4 3 0 1 2 3 2 2 2 2 1 2 2 4 4 3 3 2 3 3 5 7 5 5 11 14 12 6 3 5 4 7 6 9 7 7 8 6 7 7 4 4 6 5 3 2 1 3 2 1 3 3 3 3 3 5 5 5 6 11 13 12 10 8 9 16 24 29 34 38 40
32 25 14 13 17 15 9 7 11 19 14 5 5 5 3 5 5 5 6 2 1 2 1 3 3 2 2 2 3 2 2 1 3 2 1 2 3 4 5 5 5 9 14 13 7 3 5 4 6 4 6 3 3 6 8 8 4 2 4 4 2 3 5 3 3 4 4 4 3 2 2 3 6 7 7 10 13 13 13 11 8 11 20 28 31 33 36 38
26 16 7 8 14 16 10 4 14 14 6 3 6 4 2 3 5 9 11 6 2 3 2 3 3 3 3 2 3 2 2 3 3 2 2 3 3 4 4 5 3 5 11 13 9 4 3 4 5 4 2 2 2 6 9 9 5 3 4 4 2 1 2 2 1 3 4 4 3 3 3 5 7 6 9 13 13 13 14 12 10 14 24 32 32 32 34 38
22 8 4 6 9 13 14 4 6 5 2 2 4 3 3 3 3 7 10 8 5 5 4 4 4 4 3 2 3 2 1 2 3 3 3 4 4 4 5 8 5 3 5 7 7 6 3 3 5 4 2 4 6 7 8 9 9 8 6 6 6 4 3 2 4 1 2 3 4 5 4 7 7 5 9 12 11 11 13 13 11 16 26 30 29 31 35 39
15 4 7 12 16 18 13 4 3 3 2 2 3 3 4 4 3 5 7 6 6 6 6 4 4 4 4 4 4 3 3 3 4 4 4 5 6 4 6 9 9 6 5 5 9 9 6 4 5 6 5 6 9 7 5 7 8 7 6 6 8 6 6 6 6 3 1 1 2 3 3 7 7 6 8 9 7 9 13 13 12 17 23 24 26 31 35 37
13 12 14 10 12 14 6 2 3 2 3 5 6 5 5 4 2 3 3 3 3 4 4 4 4 5 5 5 5 5 5 4 5 7 5 4 5 8 13 15 12 7 5 5 7 7 5 3 4 5 4 4 7 5 2 3 4 4 5 4 7 7 7 7 6 5 4 3 3 2 3 6 6 3 4 6 6 9 14 18 18 19 20 20 24 30 33 36
17 20 13 4 3 5 3 2 3 2 3 6 6 6 8 7 4 4 4 3 3 3 2 3 4 6 6 6 6 6 6 4 4 6 5 4 5 9 16 18 12 5 6 8 8 8 6 3 4 4 3 4 5 5 5 3 3 4 4 4 6 7 6 3 2 3 4 5 6 5 4 6 6 4 1 4 7 7 11 18 21 19 18 21 25 29 33 36
15 14 9 4 4 3 5 1 1 1 3 4 4 5 5 5 6 10 10 6 6 6 3 4 6 6 6 5 5 7 7 5 3 3 3 3 4 8 10 12 8 5 13 19 16 15 8 4 6 7 6 7 7 6 7 5 3 3 3 6 8 8 9 5 3 4 6 5 5 6 5 6 7 5 4 5 7 6 9 15 19 21 21 22 25 30 34 36
7 4 6 7 7 1 3 3 6 3 3 3 3 4 3 3 4 9 10 7 9 10 6 6 7 6 6 6 7 8 7 6 5 3 4 3 4 5 6 12 12 9 14 17 16 12 3 3 7 10 11 10 9 9 7 5 5 5 5 8 8 8 11 8 5 5 6 4 4 6 6 6 7 7 8 7 6 8 8 9 15 22 24 25 27 31 34 36
2 1 2 5 7 3 1 4 7 4 3 3 3 3 3 3 3 5 5 5 7 7 5 6 7 6 6 7 6 7 7 6 6 6 6 6 5 5 8 13 11 6 5 6 15 10 2 3 7 10 14 15 14 13 9 7 7 8 9 10 10 9 11 10 7 7 6 6 6 9 6 8 9 9 10 10 8 7 7 9 16 23 27 28 28 29 31 32
3 4 4 4 4 2 1 5 8 6 4 4 3 3 4 4 3 3 3 4 6 4 2 3 6 8 10 9 6 6 6 6 6 7 7 6 3 3 7 9 6 2 10 1 10 8 3 5 6 8 12 16 15 13 10 8 7 7 8 10 10 10 11 12 12 11 9 8 10 8 9 10 10 10 12 12 11 11 13 18 23 24 24 25 25 26 29 32
3 5 6 5 3 4 7 11 11 8 5 4 4 3 4 5 4 2 3 4 6 4 3 2 5 7 7 7 6 5 6 6 6 7 6 4 1 1 3 5 4 4 9 4 3 2 3 5 6 9 11 14 15 12 9 9 8 7 8 9 9 10 12 13 13 12 12 12 11 9 12 13 11 11 13 13 12 13 12 15 18 20 22 24 24 27 31 34
4 4 6 8 6 9 12 10 7 5 4 4 4 3 3 4 2 5 5 4 3 3 2 2 6 8 6 7 8 9 9 6 5 6 5 4 3 2 2 3 3 4 7 4 2 1 2 4 3 6 7 10 12 11 9 10 11 11 12 11 9 8 9 10 10 7 7 9 7 5 9 11 9 8 9 7 7 9 9 12 18 21 24 26 27 30 33 34
6 5 5 6 6 7 8 6 3 3 3 3 2 2 4 4 4 8 7 8 9 7 3 3 8 8 6 7 7 7 4 2 4 7 6 6 6 3 3 3 1 5 8 3 1 2 1 2 2 4 3 7 7 10 11 10 8 11 13 13 11 9 7 7 7 7 7 8 4 4 6 9 9 6 5 3 6 9 9 12 17 20 23 27 30 32 33 32
7 4 4 4 5 4 4 4 3 2 3 2 2 4 4 6 8 8 6 6 9 10 7 6 8 7 6 6 4 5 12 14 14 15 13 13 13 9 7 5 2 1 5 4 2 1 2 1 2 3 3 7 7 9 9 6 4 7 10 11 13 11 8 6 5 6 8 8 7 6 8 8 6 6 6 5 6 8 11 16 20 22 25 29 31 31 30 30
Wind_Direction
326 327 327 327 327 325 325 324 324 323 323 323 324 326 326 327 327 325 325 325 326 327 329 328 328 329 329 329 326 322 315 303 294 285 275 267 265 266 259 253 242 232 226 224 224 219 209 200 191 198 211 212 220 225 228 225 211 196 154 151 172 184 198 180 183 182 159 154 160 165 161 150 154 149 132 134 132 137 142 147 164 171 175 169 163 161 163 162
324 324 324 325 324 323 323 322 321 321 320 320 321 322 323 325 325 324 323 323 323 325 327 327 327 327 329 330 329 325 318 310 298 285 278 276 270 255 239 235 232 226 222 223 222 218 213 205 196 200 205 206 216 204 204 207 195 180 119 157 217 193 197 186 178 175 161 158 160 163 162 163 160 148 144 139 137 142 129 131 154 133 141 161 162 163 165 166
321 321 321 321 321 321 321 320 320 319 318 318 318 319 320 321 323 323 322 321 321 322 324 326 325 326 328 328 330 328 324 318 303 292 288 277 261 244 232 229 224 218 217 221 220 218 216 210 205 195 189 196 206 197 197 193 192 198 152 185 245 200 184 184 179 181 170 159 153 157 163 172 168 154 152 148 147 156 149 152 155 146 152 161 165 167 168 169
318 318 318 318 319 319 319 319 318 316 316 315 315 317 317 318 320 320 320 320 319 320 322 324 323 324 326 326 329 330 330 324 305 296 303 274 270 251 235 233 226 217 211 215 218 217 212 201 194 184 180 187 190 198 216 207 199 191 163 199 239 181 167 189 179 178 169 161 157 155 159 170 172 161 152 147 141 183 195 183 177 168 164 164 167 171 171 173
317 316 316 316 316 317 317 317 316 316 315 313 313 313 314 316 317 318 318 318 318 319 320 322 322 322 323 324 326 328 335 333 290 137 75 275 278 255 235 237 231 220 210 209 213 212 204 194 190 183 174 168 160 170 240 225 200 181 211 221 221 178 180 194 174 169 167 162 156 153 160 167 168 167 160 155 149 203 201 194 188 178 171 169 170 172 174 176
316 315 315 314 314 315 314 315 314 314 313 312 311 310 312 313 314 316 315 316 317 318 319 321 320 319 320 321 321 322 329 295 235 231 304 285 266 259 252 245 230 219 210 205 206 203 190 183 185 176 158 151 164 174 238 228 202 207 256 236 224 207 195 181 169 164 163 161 161 164 165 161 160 172 173 168 166 211 199 193 187 179 174 172 171 173 177 180
317 315 315 314 314 313 313 313 312 312 311 310 309 309 310 310 312 312 312 314 315 316 317 318 319 317 318 317 316 315 294 275 277 289 299 288 267 262 262 253 231 216 209 202 201 194 182 178 182 170 145 141 178 201 243 235 213 215 260 259 232 218 200 173 166 164 164 167 169 163 158 163 166 172 180 185 251 242 196 189 182 175 172 172 173 177 181 183
318 317 316 315 314 313 312 312 311 311 309 308 308 308 308 308 308 309 310 311 312 315 315 316 317 315 316 313 314 311 288 287 293 292 293 288 267 260 261 252 230 214 207 203 200 192 185 181 182 172 155 173 176 199 225 282 240 205 245 271 235 215 193 168 162 163 165 166 163 157 158 173 178 165 173 195 248 184 181 181 177 171 171 174 176 179 183 185
321 319 319 318 316 315 312 312 311 310 309 307 307 306 307 306 306 306 308 308 309 311 311 313 313 312 313 308 311 306 291 296 299 295 304 298 270 260 260 244 222 210 206 203 198 191 184 178 180 179 172 180 170 193 191 50 222 230 267 284 174 173 164 158 157 161 161 159 158 155 156 172 173 156 163 199 183 168 172 173 172 170 172 175 179 182 185 188
322 321 322 320 319 318 315 314 311 310 309 307 307 307 307 305 304 304 305 305 305 305 307 309 308 309 307 302 302 286 291 301 300 297 307 308 291 275 264 233 213 207 204 200 196 191 182 173 178 180 178 169 173 210 163 110 267 280 318 63 105 129 144 151 151 156 156 158 163 157 140 154 158 156 172 191 175 169 167 167 171 172 175 178 181 185 188 192
324 324 324 323 322 321 318 317 314 313 310 308 308 307 306 303 302 303 303 303 301 302 303 303 305 304 300 293 266 256 289 301 302 298 292 300 302 290 273 222 207 204 203 199 196 193 184 174 164 161 176 175 178 212 177 306 304 282 115 78 72 107 127 145 145 154 150 157 168 149 108 141 159 186 205 175 171 172 167 165 172 175 178 181 183 187 192 195
326 325 325 324 324 323 322 320 317 316 314 312 311 309 306 303 302 301 301 302 300 300 300 301 303 299 296 282 261 268 295 297 296 293 285 292 294 289 271 209 201 202 206 201 197 194 180 174 165 161 190 175 167 145 299 320 342 126 122 85 54 84 112 146 144 157 152 156 159 134 89 166 194 238 182 168 169 170 167 167 173 177 180 183 186 190 195 197
326 325 326 325 325 324 324 322 320 319 318 317 314 311 307 303 303 301 301 302 301 301 301 302 301 296 290 269 272 287 299 292 289 284 279 284 278 274 251 203 194 199 209 206 203 200 186 190 194 214 218 173 182 128 317 335 90 104 96 95 102 78 128 174 146 156 149 153 157 142 119 222 221 219 169 168 169 166 165 169 175 180 182 185 188 193 197 200
325 325 325 325 324 325 324 323 322 321 322 322 318 315 310 306 304 303 304 304 303 303 303 305 303 300 281 268 286 299 297 288 283 275 271 270 262 256 236 207 196 197 205 208 209 207 195 194 201 222 222 209 222 96 345 8 88 98 73 77 105 126 182 211 165 152 136 163 165 151 194 216 230 207 171 171 171 168 167 172 178 181 185 188 191 195 199 202
323 323 323 323 324 324 324 323 322 322 325 325 322 319 314 309 307 306 306 303 302 304 307 308 304 303 289 285 295 300 294 290 286 286 272 257 250 241 227 213 211 202 194 198 201 199 189 182 190 204 210 209 200 78 15 15 39 84 116 90 278 155 185 233 207 176 151 174 185 178 224 224 241 189 174 174 175 173 171 176 181 184 187 190 193 197 201 204
323 323 322 322 322 323 324 323 322 323 326 328 325 322 316 312 310 308 304 296 294 300 309 309 299 303 299 294 298 302 310 304 13 346 296 256 246 234 226 216 216 206 196 194 194 195 191 190 200 203 187 166 137 92 54 34 5 325 103 149 191 148 176 213 225 212 175 170 201 216 173 238 261 176 176 177 178 177 176 180 184 187 190 192 195 198 202 204
325 324 322 321 322 323 324 323 322 322 326 329 326 323 319 315 312 307 297 285 285 295 306 301 291 294 280 273 277 281 293 230 335 335 313 259 243 236 235 221 214 211 204 194 192 192 190 193 189 201 195 125 110 100 84 47 241 269 64 123 184 172 178 184 206 213 187 171 205 214 172 222 219 171 175 180 182 181 182 184 188 191 193 196 198 200 203 205
326 325 323 322 322 324 325 323 322 322 326 330 330 327 323 318 311 302 288 276 284 297 304 294 282 294 273 267 270 270 275 276 300 310 292 245 235 237 243 239 235 213 192 182 188 183 183 193 165 161 103 98 112 107 126 198 185 188 163 134 197 228 202 197 189 188 178 183 208 213 210 216 170 168 177 183 184 185 188 188 191 195 197 200 200 202 205 207
326 325 323 322 322 324 326 325 323 324 326 330 333 330 324 320 310 294 273 270 287 291 287 266 230 259 271 277 281 281 288 290 294 295 283 262 232 237 244 243 237 197 168 158 194 183 169 155 119 152 171 161 167 150 170 197 174 174 174 158 178 204 225 211 201 182 170 178 208 203 207 192 167 176 182 184 186 190 195 193 194 198 201 203 204 207 208 210
326 325 323 321 322 323 326 326 324 326 328 332 336 337 338 337 326 301 296 294 289 278 273 268 260 262 267 275 279 283 288 287 285 283 281 270 229 248 239 221 202 173 162 155 192 185 166 163 180 185 187 180 181 179 175 167 152 154 154 161 177 192 235 230 277 260 168 173 211 193 174 186 181 184 184 184 186 193 198 198 200 201 202 205 207 211 213 215
326 326 323 320 320 323 326 325 323 328 331 336 346 355 24 27 16 326 317 308 297 286 281 282 277 269 269 272 272 276 284 286 281 272 267 262 253 261 221 193 150 153 205 182 154 158 165 186 207 198 193 182 184 185 157 131 134 138 145 162 180 199 235 231 249 258 176 179 221 167 152 204 197 188 186 181 185 198 201 199 201 202 203 206 209 214 217 219
327 326 323 320 319 322 326 324 323 328 332 346 358 7 64 53 28 323 317 303 297 295 287 285 279 269 271 273 268 266 268 276 273 264 257 252 238 212 185 165 147 181 224 183 128 141 176 216 214 202 187 158 156 168 146 135 141 132 132 147 183 215 224 222 185 165 174 207 253 147 157 239 222 193 193 189 196 204 203 202 203 203 203 206 210 214 217 220
328 327 324 321 319 321 326 323 322 329 335 345 349 0 58 16 352 323 311 275 293 297 283 275 269 266 270 272 268 256 236 232 253 256 252 230 206 193 175 150 161 185 188 184 170 160 190 240 215 185 156 141 132 146 138 128 135 134 138 149 200 222 176 217 191 154 152 180 184 130 117 315 191 185 215 209 210 213 209 210 211 208 208 210 212 214 215 217
329 328 323 321 318 319 326 324 322 333 340 339 341 179 359 346 336 328 312 256 284 293 283 279 269 268 271 273 269 236 218 222 229 243 248 226 192 183 180 166 161 178 195 198 183 175 219 251 182 151 152 159 152 147 140 137 181 203 179 164 176 197 196 209 158 138 106 35 111 108 54 315 199 186 219 216 216 223 217 214 216 217 216 216 217 216 216 218
331 329 324 322 319 318 325 325 321 331 336 340 345 186 337 337 329 329 320 265 287 284 290 290 262 270 278 274 259 225 217 224 227 235 241 225 200 179 179 177 170 191 198 182 174 196 239 246 150 144 163 166 154 165 169 163 183 252 215 187 179 177 182 153 131 128 110 266 228 125 100 289 234 202 213 203 208 220 216 212 217 220 220 220 220 218 218 220
332 330 325 323 320 318 323 327 320 328 339 356 106 315 326 323 325 329 337 34 313 271 290 286 239 311 327 240 218 208 217 238 234 233 231 226 213 195 182 170 169 194 180 164 167 213 229 200 146 148 163 163 165 188 200 169 150 250 228 190 181 160 146 147 144 140 151 214 217 165 190 267 293 230 212 195 205 217 216 216 219 219 219 220 219 219 219 219
331 330 325 322 322 321 322 324 322 328 342 340 292 307 307 311 324 330 3 17 314 262 256 228 235 342 331 228 184 169 197 253 230 222 214 212 206 195 197 191 155 183 161 139 199 230 195 184 170 158 154 156 172 199 211 164 141 236 225 170 160 148 152 161 157 167 177 141 141 167 175 272 287 252 207 185 202 222 224 226 222 219 219 219 219 220 219 219
329 329 324 319 321 321 316 317 322 329 333 308 289 289 295 306 310 341 70 8 282 275 224 226 282 324 332 198 186 187 220 202 187 213 206 201 195 187 193 195 165 176 176 151 211 247 186 188 189 171 164 177 192 200 186 161 163 236 204 152 151 153 162 166 165 190 172 109 205 224 158 199 264 279 208 175 198 223 227 227 223 218 217 218 219 220 220 221
326 326 323 317 316 315 309 310 318 323 322 313 288 287 303 301 281 97 89 253 281 313 259 257 340 335 21 151 195 215 250 242 211 198 192 192 196 190 192 202 174 167 194 176 200 245 221 200 190 169 175 201 206 203 165 163 198 222 156 114 93 103 122 154 170 174 102 125 217 218 182 196 260 278 177 169 203 224 227 227 224 219 216 217 218 219 220 221
322 323 321 315 313 311 305 306 313 311 308 304 290 298 309 269 149 100 143 234 282 281 254 284 349 351 74 97 223 239 247 267 285 164 171 180 191 193 194 199 180 152 200 197 194 232 271 228 185 170 188 191 193 198 169 176 188 146 114 90 65 55 63 83 107 103 102 232 240 213 192 195 248 262 193 183 207 214 218 226 226 219 216 218 219 219 220 220
320 321 319 314 312 309 303 306 313 302 294 295 294 298 294 174 116 124 209 231 287 272 286 283 309 22 44 56 281 246 231 261 274 139 152 162 175 184 162 180 181 148 198 226 222 271 288 254 212 203 194 171 164 190 192 196 185 133 104 101 107 19 31 40 12 62 134 243 253 218 191 192 237 254 219 216 220 213 210 218 220 213 213 215 216 217 219 219
319 318 316 313 308 302 300 306 305 290 286 295 298 295 156 163 189 186 221 324 315 251 46 259 283 13 3 15 308 239 212 230 244 149 153 145 151 181 177 178 181 172 215 223 229 285 265 233 247 259 211 167 151 169 205 242 136 133 117 103 128 258 349 83 264 95 177 240 256 188 159 189 246 249 235 230 235 229 218 219 220 214 212 212 213 215 217 217
319 318 315 312 307 301 299 299 286 275 278 280 283 319 107 160 230 204 213 270 236 211 69 254 292 343 355 0 313 257 228 221 229 198 162 147 152 200 213 202 174 168 192 195 196 224 273 269 242 237 247 190 164 159 179 201 155 154 150 138 152 168 172 218 238 355 223 253 290 142 153 203 271 261 240 228 231 230 224 224 225 222 215 212 212 213 215 215
318 320 316 313 311 302 295 287 271 265 264 249 238 62 123 203 235 213 212 229 253 338 7 303 321 330 347 331 272 270 316 263 212 159 147 135 155 208 239 241 185 160 139 157 188 186 201 257 221 204 228 192 179 177 164 151 158 180 165 148 161 162 169 209 205 190 213 244 330 103 154 193 217 253 243 229 234 231 228 233 234 233 226 214 211 211 212 214
319 320 318 317 313 298 289 275 262 260 241 205 158 140 189 205 228 218 219 230 277 330 311 331 349 331 322 288 277 52 86 284 273 133 160 156 170 200 200 210 197 160 140 178 217 177 192 242 243 231 224 182 185 190 149 129 161 210 149 130 183 185 167 191 190 180 179 157 129 164 204 219 217 285 296 288 281 246 232 239 240 235 224 205 203 207 210 212
320 321 323 323 313 300 290 265 258 257 211 169 137 212 210 201 195 193 202 193 163 340 329 343 17 229 305 311 319 29 58 309 322 37 204 186 193 204 198 214 197 174 169 182 213 174 182 250 260 232 232 206 187 177 162 165 180 183 147 175 210 176 147 158 217 164 126 181 245 190 223 273 305 300 293 295 296 269 239 234 231 224 209 193 197 204 207 210
325 328 331 329 317 311 300 271 261 237 188 163 170 220 206 217 204 199 214 124 127 77 66 12 303 204 256 308 305 344 16 343 335 2 297 239 229 203 203 235 195 183 190 187 207 209 166 254 268 200 217 236 198 182 197 193 164 134 182 198 172 117 111 124 179 19 66 221 264 196 196 220 166 277 293 274 253 260 255 235 225 210 195 195 201 205 207 210
329 331 336 337 325 315 299 279 250 197 173 164 220 225 200 225 213 204 235 273 65 61 93 170 244 231 207 250 284 313 15 350 331 0 311 257 260 208 191 213 200 192 198 193 212 234 167 240 283 210 204 227 181 181 238 232 186 148 177 173 138 156 217 137 172 185 154 214 265 277 246 224 195 224 269 240 228 241 250 240 214 191 194 201 206 207 208 209
332 333 344 358 351 339 307 258 190 171 162 164 218 222 211 226 238 225 229 249 126 139 182 218 223 259 241 208 247 287 44 261 273 327 258 236 263 228 188 201 221 204 194 187 192 209 167 208 272 239 203 192 135 177 217 229 222 79 121 151 142 170 178 176 168 166 187 204 225 269 285 252 227 217 210 217 223 227 236 236 216 202 205 208 209 208 205 205
338 336 334 1 11 15 20 119 157 164 170 190 199 215 219 226 254 241 233 239 194 176 213 214 207 243 251 236 254 258 177 207 221 208 226 232 264 268 222 197 227 217 196 190 192 192 171 196 236 266 240 183 198 207 204 203 183 137 163 180 180 144 139 188 188 132 154 175 177 202 236 253 247 209 195 213 220 218 219 222 222 215 212 214 212 207 204 204
346 342 302 319 330 345 0 42 163 190 233 218 210 234 248 243 266 259 249 237 218 223 223 209 215 226 235 267 264 246 212 213 207 201 235 234 231 264 236 195 188 188 181 191 205 203 189 188 209 235 224 205 236 232 200 186 172 169 187 186 179 168 138 193 246 228 126 165 177 177 210 258 251 196 198 215 216 219 217 210 218 222 218 217 212 208 207 207
348 319 305 305 288 300 327 342 245 246 225 236 259 252 252 259 252 264 266 240 218 228 224 218 226 222 235 246 227 224 230 225 216 209 226 230 213 225 240 220 206 188 161 191 216 201 177 156 190 219 226 224 240 240 192 181 175 177 199 192 180 177 163 182 220 233 213 206 149 136 198 264 260 203 205 217 212 226 225 214 221 229 225 219 211 209 210 211
331 308 316 314 288 293 309 296 276 267 245 269 288 285 269 264 229 237 268 255 223 222 218 216 205 206 228 223 205 209 208 211 218 207 217 243 220 222 243 249 243 215 170 200 221 198 174 152 182 224 273 268 265 283 253 172 154 189 236 199 176 189 188 185 186 179 192 200 151 143 235 264 274 246 220 228 225 233 230 219 220 227 226 217 210 209 210 212
318 309 313 359 338 292 216 222 271 251 271 287 292 289 270 259 248 242 244 227 215 214 222 236 210 210 228 215 206 214 201 201 231 227 228 234 228 241 252 257 255 214 189 211 192 175 193 194 169 196 254 257 264 288 273 236 178 197 227 191 179 181 169 150 102 145 210 216 171 169 227 250 273 309 316 226 217 229 234 226 225 226 222 213 208 208 210 213
322 311 302 338 347 250 198 103 15 262 308 318 298 286 271 259 246 238 234 228 229 224 220 245 231 223 230 221 225 231 209 193 222 263 256 233 258 270 267 274 275 221 226 224 189 166 188 197 168 184 209 218 219 224 230 222 196 215 216 188 188 175 163 158 112 162 226 234 167 170 212 248 279 299 282 231 202 216 239 232 227 226 223 217 210 208 211 213
325 310 303 326 340 278 192 60 46 21 343 346 307 275 247 252 263 249 237 230 238 233 224 241 239 236 245 237 240 247 231 210 215 255 271 261 267 264 291 310 297 261 250 231 184 154 161 197 186 193 202 210 212 216 213 170 162 210 215 195 197 187 176 167 143 179 201 176 185 214 200 212 256 257 249 244 215 217 231 223 219 220 219 218 213 211 212 213
297 293 335 335 334 342 49 47 41 23 323 325 309 282 268 262 284 276 242 230 252 244 225 232 223 216 227 221 228 243 233 222 225 238 248 247 252 276 318 315 284 271 312 218 173 147 100 226 209 203 208 215 215 212 201 170 178 200 201 200 203 193 177 171 187 203 167 146 231 251 193 189 229 227 225 235 224 219 222 212 215 216 214 213 212 211 212 213
262 306 353 352 313 320 1 346 352 338 297 295 274 270 293 276 270 297 276 289 303 276 221 251 237 223 221 216 220 229 215 217 233 233 229 228 248 319 330 309 266 30 30 67 179 155 147 220 210 201 220 229 226 217 193 180 199 198 192 202 202 191 180 184 204 201 162 174 232 231 182 193 223 222 219 222 212 206 208 207 211 214 213 212 209 208 210 213
277 292 316 332 309 288 296 304 312 306 287 290 270 251 282 276 271 325 321 313 312 271 200 240 271 258 245 240 243 231 210 204 217 227 220 211 206 47 352 309 289 34 39 16 240 147 158 229 208 192 222 237 234 227 195 187 214 219 209 209 198 189 188 195 210 201 182 207 227 198 187 207 219 213 217 223 215 206 204 201 204 209 209 207 205 206 210 213
324 304 311 330 316 288 291 291 292 299 295 285 260 260 308 296 310 352 321 265 271 288 217 224 286 299 294 271 251 228 217 202 206 227 218 201 208 164 165 253 272 343 5 1 311 59 145 249 231 168 217 244 234 229 212 197 213 228 233 232 214 196 194 204 219 202 190 228 240 170 187 225 238 218 217 227 203 183 184 191 200 207 207 203 202 207 210 212
320 294 284 312 306 283 290 293 286 304 298 268 250 329 344 328 337 341 305 237 225 249 270 316 313 314 307 279 248 224 243 286 255 255 252 247 256 236 181 195 155 351 337 328 301 356 121 252 323 104 196 253 230 220 222 207 208 233 243 242 230 212 202 208 208 184 185 211 203 135 182 235 246 220 198 193 167 170 190 196 198 206 207 203 203 207 209 211
332 311 259 284 292 281 295 305 290 270 270 290 7 359 326 301 317 326 302 261 245 244 263 326 328 317 308 285 272 315 322 310 288 279 275 270 277 283 269 261 112 83 292 307 334 314 139 145 334 119 190 261 242 211 208 184 187 243 246 232 226 218 208 211 204 189 190 179 162 182 215 234 228 178 174 195 184 189 209 203 196 199 202 205 207 208 208 211